STARLINK-34592, 64746

Orbit data source: Space-Track

STARLINK-34592, 64746 is a payload satellite owned by SpaceX/Seattle (US) in LEO that was launched on Wed, 02 Jul 2025 UTC via an FALCON 9 launch vehicle from the Air Force Eastern Test Range (AFETR). Payload-class satellites include a variety of spacecraft equipped with specific instruments for various scientific and technological missions. These include communications satellites like Starlink; space stations such as the ISS; scientific satellites like the Hubble; Earth observation satellites from companies like Planet Labs, Umbra, and HawkEye 360; GPS; miniature CubeSats for education and research; and military/defense satellites.

Not visible in the next 10 days
Identifier
64746, 2025-144Y
Orbit
LEO
Last TLE update
15 hours ago
Origin
Manufacturer
SpaceX/Seattle
Mission
Operational spacecraft
Bus & Motor
STARLINK V2MO, Unknown motor
Mass
575 kg wet, ~530 kg dry
Launch date (UTC)
2025-07-02 (1 week ago)
Launch vehicle
FALCON 9
Launch site
Air Force Eastern Test Range (AFETR)
Object type
Payload
Rocket body
Debris
Shape & HBR
Unknown
Radar Cross Section
RCS unknown

Expand to show TLE details & history

TLE from 15 hours ago
0 STARLINK-34592
1 64746U 25144Y   25191.66668981 -.01269308  00000-0 -50372-2 0  9991
2 64746  53.1537 231.6847 0000896  75.1213  37.3233 15.88473723  2579
Epoch: 2025-07-10T16:00Z
TLE epoch observation values (Epoch: 2025-07-10T16:00:01.999Z)
Latitude
47.84641°
Longitude
-172.54923°
Altitude
311.391 km
Speed
7.727 km/s
True Right ascension
23h 45m 09s
True Declination
47° 39' 50"
Sunlit
Object was in daylight at epoch
Visualization orbit readout
Latitude
12.53543°
Longitude
69.28092°
Altitude
311.19 km
Speed
7.724 km/s
Apparent Right ascension
12h 39m 06s
Apparent Declination
-28° 49' 42"
Sunlit
Object is in full shadow
Visualization observer readout
Local Sidereal Time
18:59:25
Azimuth
249.859° W
Elevation
-21.649°
Doppler factor
1
Orbital elements
Apogee altitude
307.424 km
Perigee altitude
306.226 km
Semi-major axis
6,684.962 km
Eccentricity
0.00009
Inclination
53.1537°
RAAN
231.6847°
Arg. of periapsis
75.1213°
True anomaly
Unknown
Mean anomaly
37.3233°
Eccentric anomaly
Unknown
Mean motion
3.97095 °/min
Orbital period
90.66 mins
BSTAR
-0.0050372
Loading maneuver chart data...
Loading SW <> Apogee altitude chart data...
Loading historical data...
Loading historical data...
Loading historical data...
Loading historical data...
Loading historical data...
Loading historical data...
Loading historical data...

STARLINK-34592 Visibility

Observer location: undefined°, undefined°

STARLINK-34592 is likely not visible in the next few days
Span
Click to sort rows by Start time (UTC) header in descending order
Start Az.
Max El. time (UTC)
Max El. Az.
Max El.
End time (UTC)
End Az.
|